DAL3007 KGSP-KATL

Flight info

Callsign DAL3007
Flight time 0h 31m
Altitude 16000
Route DGESS OZZZI2
Aircraft B739/M-SDE2E3FGHIRWXY/LB1

Departure

Time 2026-04-19 04:25
Airport Greenville-Spartanburg International Airport (KGSP)

Arrival

Time 2026-04-19 04:56
Airport Hartsfield Jackson Atlanta International Airport (KATL)
Time Latitude Longitude Altitude Speed Heading
2026-04-19 03:26 34.89232 -82.21698 959 ft 0 kts 123°
2026-04-19 04:14 34.89243 -82.21720 955 ft 4 kts 121°
2026-04-19 04:15 34.89254 -82.21749 957 ft 4 kts 99°
2026-04-19 04:15 34.89254 -82.21780 956 ft 4 kts 63°
2026-04-19 04:15 34.89242 -82.21797 956 ft 1 kts 32°
2026-04-19 04:15 34.89240 -82.21799 956 ft 0 kts 32°
2026-04-19 04:18 34.89249 -82.21793 955 ft 5 kts 31°
2026-04-19 04:19 34.89295 -82.21757 959 ft 11 kts 32°
2026-04-19 04:19 34.89384 -82.21719 957 ft 17 kts 338°
2026-04-19 04:19 34.89507 -82.21697 958 ft 22 kts 31°
2026-04-19 04:19 34.89649 -82.21588 956 ft 25 kts 32°
2026-04-19 04:20 34.89792 -82.21477 958 ft 23 kts 32°
2026-04-19 04:20 34.89927 -82.21373 958 ft 23 kts 35°
2026-04-19 04:20 34.90058 -82.21274 957 ft 22 kts 32°
2026-04-19 04:20 34.90185 -82.21175 956 ft 21 kts 32°
2026-04-19 04:21 34.90309 -82.21081 960 ft 21 kts 32°
2026-04-19 04:21 34.90429 -82.20990 958 ft 20 kts 33°
2026-04-19 04:21 34.90546 -82.20901 957 ft 19 kts 32°
2026-04-19 04:21 34.90658 -82.20815 958 ft 19 kts 33°
2026-04-19 04:22 34.90768 -82.20778 958 ft 15 kts 318°
2026-04-19 04:22 34.90812 -82.20872 958 ft 12 kts 296°
2026-04-19 04:22 34.90790 -82.20950 957 ft 8 kts 215°
2026-04-19 04:22 34.90786 -82.20954 957 ft 0 kts 213°
2026-04-19 04:24 34.90766 -82.20970 959 ft 23 kts 213°
2026-04-19 04:24 34.90376 -82.21268 958 ft 107 kts 212°
2026-04-19 04:24 34.89549 -82.21899 998 ft 168 kts 212°
2026-04-19 04:25 34.88508 -82.22669 1722 ft 173 kts 212°
2026-04-19 04:25 34.87513 -82.23306 2753 ft 153 kts 208°
2026-04-19 04:25 34.86854 -82.23633 3193 ft 161 kts 207°
2026-04-19 04:25 34.85715 -82.24182 3448 ft 189 kts 207°
2026-04-19 04:26 34.84573 -82.25095 3614 ft 208 kts 237°
2026-04-19 04:26 34.84158 -82.26822 3995 ft 221 kts 264°
2026-04-19 04:26 34.84009 -82.28703 4634 ft 226 kts 262°
2026-04-19 04:26 34.83833 -82.30680 5087 ft 245 kts 262°
2026-04-19 04:27 34.83631 -82.32769 5811 ft 252 kts 262°
2026-04-19 04:27 34.83411 -82.34901 6643 ft 255 kts 261°
2026-04-19 04:27 34.83179 -82.37045 7464 ft 257 kts 261°
2026-04-19 04:27 34.82933 -82.39226 8223 ft 263 kts 260°
2026-04-19 04:28 34.82677 -82.41440 9038 ft 265 kts 260°
2026-04-19 04:28 34.82416 -82.43659 9903 ft 266 kts 260°
2026-04-19 04:28 34.82147 -82.45920 10456 ft 278 kts 259°
2026-04-19 04:28 34.81852 -82.48350 10620 ft 302 kts 259°
2026-04-19 04:29 34.81533 -82.50974 10802 ft 322 kts 260°
2026-04-19 04:29 34.81199 -82.53718 11278 ft 331 kts 259°
2026-04-19 04:29 34.80861 -82.56491 12063 ft 330 kts 259°
2026-04-19 04:29 34.80529 -82.59224 13007 ft 324 kts 259°
2026-04-19 04:30 34.80200 -82.61918 13960 ft 318 kts 259°
2026-04-19 04:30 34.79877 -82.64556 14835 ft 313 kts 259°
2026-04-19 04:30 34.79557 -82.67166 15552 ft 312 kts 259°
2026-04-19 04:30 34.79237 -82.69754 15909 ft 309 kts 259°
2026-04-19 04:31 34.78915 -82.72353 15975 ft 311 kts 259°
2026-04-19 04:31 34.78587 -82.74950 15983 ft 310 kts 257°
2026-04-19 04:31 34.77924 -82.77423 15985 ft 308 kts 242°
2026-04-19 04:31 34.76795 -82.79633 15993 ft 308 kts 237°
2026-04-19 04:32 34.75574 -82.81773 16010 ft 308 kts 236°
2026-04-19 04:32 34.74339 -82.83905 16012 ft 309 kts 236°
2026-04-19 04:32 34.73102 -82.86050 16016 ft 310 kts 236°
2026-04-19 04:32 34.71872 -82.88200 16011 ft 310 kts 236°
2026-04-19 04:33 34.70644 -82.90359 16012 ft 311 kts 237°
2026-04-19 04:33 34.69415 -82.92528 16011 ft 311 kts 237°
2026-04-19 04:33 34.68188 -82.94697 16011 ft 312 kts 237°
2026-04-19 04:33 34.66958 -82.96873 16012 ft 312 kts 237°
2026-04-19 04:34 34.65728 -82.99047 16005 ft 312 kts 237°
2026-04-19 04:34 34.64494 -83.01223 16008 ft 312 kts 237°
2026-04-19 04:34 34.63264 -83.03393 16005 ft 312 kts 237°
2026-04-19 04:34 34.62034 -83.05560 15999 ft 312 kts 237°
2026-04-19 04:35 34.60803 -83.07726 15998 ft 311 kts 237°
2026-04-19 04:35 34.59573 -83.09889 16015 ft 311 kts 237°
2026-04-19 04:35 34.58345 -83.12050 16013 ft 311 kts 236°
2026-04-19 04:35 34.57121 -83.14204 16018 ft 310 kts 237°
2026-04-19 04:36 34.55897 -83.16356 16026 ft 310 kts 237°
2026-04-19 04:36 34.54673 -83.18507 16024 ft 309 kts 237°
2026-04-19 04:36 34.53452 -83.20655 16016 ft 309 kts 237°
2026-04-19 04:36 34.52229 -83.22804 16024 ft 310 kts 237°
2026-04-19 04:37 34.51003 -83.24957 16026 ft 311 kts 237°
2026-04-19 04:37 34.49770 -83.27116 16032 ft 312 kts 237°
2026-04-19 04:37 34.48536 -83.29277 16032 ft 312 kts 237°
2026-04-19 04:37 34.47288 -83.31443 16024 ft 313 kts 236°
2026-04-19 04:38 34.46031 -83.33604 16022 ft 314 kts 236°
2026-04-19 04:38 34.44771 -83.35764 15998 ft 314 kts 236°
2026-04-19 04:38 34.43508 -83.37931 15996 ft 314 kts 236°
2026-04-19 04:38 34.42248 -83.40092 15996 ft 314 kts 236°
2026-04-19 04:39 34.40991 -83.42251 15994 ft 313 kts 236°
2026-04-19 04:39 34.39736 -83.44405 16014 ft 313 kts 236°
2026-04-19 04:39 34.38482 -83.46556 16024 ft 313 kts 236°
2026-04-19 04:39 34.37230 -83.48706 16021 ft 313 kts 236°
2026-04-19 04:40 34.35976 -83.50857 16026 ft 312 kts 236°
2026-04-19 04:40 34.34725 -83.53005 16024 ft 312 kts 236°
2026-04-19 04:40 34.33472 -83.55152 16041 ft 312 kts 236°
2026-04-19 04:40 34.32222 -83.57292 16031 ft 312 kts 236°
2026-04-19 04:41 34.30969 -83.59433 16027 ft 312 kts 236°
2026-04-19 04:41 34.29717 -83.61572 16018 ft 312 kts 236°
2026-04-19 04:41 34.28357 -83.63610 16034 ft 313 kts 227°
2026-04-19 04:41 34.26777 -83.65375 16023 ft 304 kts 224°
2026-04-19 04:42 34.25202 -83.66994 16016 ft 290 kts 223°
2026-04-19 04:42 34.23691 -83.68536 15904 ft 281 kts 223°
2026-04-19 04:42 34.22225 -83.70049 15738 ft 273 kts 224°
2026-04-19 04:42 34.20790 -83.71548 15426 ft 271 kts 224°
2026-04-19 04:43 34.19373 -83.73039 15117 ft 270 kts 224°
2026-04-19 04:43 34.17964 -83.74529 14790 ft 269 kts 224°
2026-04-19 04:43 34.16579 -83.75997 14467 ft 268 kts 224°
2026-04-19 04:43 34.15164 -83.77500 14133 ft 268 kts 224°
2026-04-19 04:44 34.13765 -83.78985 13791 ft 268 kts 224°
2026-04-19 04:44 34.12385 -83.80449 13422 ft 267 kts 224°
2026-04-19 04:44 34.10990 -83.81928 13062 ft 267 kts 224°
2026-04-19 04:44 34.09593 -83.83406 12717 ft 266 kts 224°
2026-04-19 04:45 34.08209 -83.84885 12367 ft 266 kts 224°
2026-04-19 04:45 34.06832 -83.86364 12031 ft 265 kts 224°
2026-04-19 04:45 34.05454 -83.87846 11690 ft 264 kts 224°
2026-04-19 04:45 34.04084 -83.89319 11365 ft 264 kts 224°
2026-04-19 04:46 34.02716 -83.90788 11039 ft 263 kts 224°
2026-04-19 04:46 34.01351 -83.92252 10704 ft 263 kts 225°
2026-04-19 04:46 33.99976 -83.93724 10370 ft 264 kts 225°
2026-04-19 04:46 33.98611 -83.95183 10174 ft 259 kts 225°
2026-04-19 04:47 33.97124 -83.96410 9813 ft 267 kts 203°
2026-04-19 04:47 33.95293 -83.96814 9544 ft 270 kts 186°
2026-04-19 04:47 33.93404 -83.96782 9227 ft 272 kts 182°
2026-04-19 04:47 33.91527 -83.96664 9020 ft 267 kts 181°
2026-04-19 04:48 33.89673 -83.96550 8913 ft 269 kts 181°
2026-04-19 04:48 33.87773 -83.96450 8812 ft 277 kts 182°
2026-04-19 04:48 33.85839 -83.96420 8695 ft 276 kts 192°
2026-04-19 04:48 33.84150 -83.97288 8487 ft 261 kts 225°
2026-04-19 04:49 33.82897 -83.98841 8163 ft 259 kts 229°
2026-04-19 04:49 33.81648 -84.00409 7802 ft 260 kts 229°
2026-04-19 04:49 33.80389 -84.01972 7488 ft 260 kts 228°
2026-04-19 04:49 33.79107 -84.03544 7203 ft 259 kts 227°
2026-04-19 04:50 33.77862 -84.05059 6885 ft 259 kts 227°
2026-04-19 04:50 33.76572 -84.06618 6579 ft 259 kts 227°
2026-04-19 04:50 33.75318 -84.08129 6282 ft 259 kts 227°
2026-04-19 04:50 33.74030 -84.09676 5984 ft 257 kts 227°
2026-04-19 04:51 33.72764 -84.11196 5638 ft 258 kts 227°
2026-04-19 04:51 33.71495 -84.12718 5358 ft 257 kts 227°
2026-04-19 04:51 33.70233 -84.14228 5092 ft 255 kts 227°
2026-04-19 04:51 33.69000 -84.15703 4838 ft 253 kts 227°
2026-04-19 04:52 33.67758 -84.17184 4587 ft 250 kts 227°
2026-04-19 04:52 33.66529 -84.18649 4337 ft 248 kts 227°
2026-04-19 04:52 33.65359 -84.20175 4088 ft 243 kts 241°
2026-04-19 04:52 33.64962 -84.22071 3855 ft 233 kts 272°
2026-04-19 04:53 33.65005 -84.23958 3689 ft 221 kts 269°
2026-04-19 04:53 33.64978 -84.25709 3442 ft 205 kts 270°
2026-04-19 04:53 33.64967 -84.27352 3196 ft 190 kts 270°
2026-04-19 04:53 33.64964 -84.28880 2959 ft 174 kts 270°
2026-04-19 04:54 33.64962 -84.30279 2726 ft 161 kts 269°
2026-04-19 04:54 33.64961 -84.31550 2561 ft 142 kts 270°
2026-04-19 04:54 33.64959 -84.32708 2364 ft 138 kts 269°
2026-04-19 04:54 33.64958 -84.33870 2161 ft 139 kts 269°
2026-04-19 04:55 33.64957 -84.35023 1991 ft 137 kts 269°
2026-04-19 04:55 33.64961 -84.36167 1815 ft 138 kts 269°
2026-04-19 04:55 33.64957 -84.37346 1625 ft 143 kts 268°
2026-04-19 04:55 33.64951 -84.38548 1404 ft 145 kts 269°
2026-04-19 04:56 33.64951 -84.39751 1204 ft 145 kts 267°
2026-04-19 04:56 33.64953 -84.40968 1065 ft 145 kts 269°
2026-04-19 04:56 33.64954 -84.42090 1006 ft 111 kts 270°
2026-04-19 04:56 33.64954 -84.42752 1006 ft 48 kts 270°
2026-04-19 04:57 33.64949 -84.43054 1005 ft 33 kts 262°
2026-04-19 04:57 33.64874 -84.43305 1005 ft 32 kts 243°
2026-04-19 04:57 33.64828 -84.43522 1005 ft 18 kts 230°
2026-04-19 04:57 33.64802 -84.43543 1006 ft 8 kts 211°
2026-04-19 04:58 33.64731 -84.43593 1005 ft 16 kts 209°
2026-04-19 04:58 33.64609 -84.43676 1005 ft 24 kts 208°
2026-04-19 04:58 33.64458 -84.43721 1005 ft 16 kts 182°
2026-04-19 04:58 33.64353 -84.43716 1005 ft 13 kts 143°
2026-04-19 04:59 33.64342 -84.43650 1005 ft 5 kts 89°
2026-04-19 04:59 33.64342 -84.43646 1005 ft 0 kts 89°